Showing default

RADUGA 26, 21016

Orbit data source: Space-Track

RADUGA 26, 21016 is a payload satellite owned by UNKS (CIS) in GEO that was launched on Thu, 20 Dec 1990 UTC via a PROTON-K/DM-2 launch vehicle from the Tyuratam Missile And Space Complex (TTMTR). Payload-class satellites include a variety of spacecraft equipped with specific instruments for various scientific and technological missions. These include communications satellites like Starlink; space stations such as the ISS; scientific satellites like the Hubble; Earth observation satellites from companies like Planet Labs, Umbra, and HawkEye 360; GPS; miniature CubeSats for education and research; and military/defense satellites.

Not visible in the next 10 days
Identifier
21016, 1990-112A
Orbit
GEO
Country
Flag of CISCIS
Related business
Manufacturer
NPO PM
Mission
Non-operational Defense Communications
Bus & Motor
RADUGA, Unknown motor
Mass
1,965 kg wet, ~1,800 kg dry
Launch date (UTC)
1990-12-20 (35 years ago)
Launch vehicle
PROTON-K/DM-2
Launch site
Tyuratam Missile And Space Complex (TTMTR)
Object type
Payload
Rocket body
Debris
Shape & HBR
Cyl + 2 Pan, 4.8 m
Radar Cross Section
16.975 m², Large (>1 m²)

Expand to show TLE details & history
Last TLE update: 19 hours ago

TLE from 19 hours ago
0 RADUGA 26
1 21016U 90112A   25260.69207905 -.00000278  00000-0  00000-0 0  9994
2 21016  13.0812 339.8043 0004060 138.5192 220.8111  1.00244716127523
Epoch: 2025-09-17T16:36Z
TLE epoch observation values (Epoch: 2025-09-17T16:36:35.629Z)
Latitude
-0.16561°
Longitude
93.10519°
Altitude
35,806.759 km
Speed
3.073 km/s
True Right ascension
22h 36m 28s
True Declination
0° 09' 56"
Sunlit
Object was in daylight at epoch
Visualization orbit readout
Latitude
Unknown
Longitude
Unknown
Altitude
Unknown
Speed
Unknown
Apparent Right ascension
Unknown
Apparent Declination
Unknown
Sunlit
N/A
Visualization observer readout
Local Sidereal Time
04:34:57
Azimuth
Unknown
Elevation
Unknown
Doppler factor
Unknown
Orbital elements
Apogee altitude
35,812.297 km
Perigee altitude
35,778.053 km
Semi-major axis
42,173.312 km
Eccentricity
0.00041
Inclination
13.0812°
RAAN
339.8043°
Arg. of periapsis
138.5192°
True anomaly
220.78071°
Mean anomaly
220.8111°
Eccentric anomaly
220.7959°
Mean motion
0.2506 °/min
Orbital period
1,436.53 mins
BSTAR
0
Loading maneuver chart data...
Computing Atmospheric mass density...
Loading historical data...
Loading historical data...
Loading historical data...
Loading historical data...
Loading historical data...
Loading historical data...
Loading historical data...

Documentation

Showing up to 5 results
|